| time (UTC) | temp F | wind direction | speed MPH | gust MPH | rain 1hr in | rain 24hr in | rain mn in | humidity % | barometer mb |
| 20260831193035 | 97 | 34 | 2.0 | 5.0 | 0.00 | 0.00 | 0.00 | 44 | 1015.9 |
| 20260831191534 | 97 | 247 | 2.0 | 10.0 | 0.00 | 0.00 | 0.00 | 44 | 1016.1 |
| 20260831190035 | 95 | 231 | 1.0 | 7.0 | 0.00 | 0.00 | 0.00 | 46 | 1016.4 |
| 20260831184536 | 96 | 65 | 1.0 | 5.0 | 0.00 | 0.00 | 0.00 | 46 | 1016.5 |
| 20260831183037 | 95 | 248 | 1.0 | 6.0 | 0.00 | 0.00 | 0.00 | 49 | 1016.7 |
| 20260831181535 | 95 | 0 | 2.0 | 7.0 | 0.00 | 0.00 | 0.00 | 49 | 1016.7 |
| 20260831180034 | 93 | 267 | 1.0 | 6.0 | 0.00 | 0.00 | 0.00 | 52 | 1017.0 |
| 20260831174536 | 94 | 90 | 2.0 | 7.0 | 0.00 | 0.00 | 0.00 | 51 | 1017.3 |
| 20260831173035 | 93 | 72 | 3.0 | 9.0 | 0.00 | 0.00 | 0.00 | 54 | 1017.4 |
| 20260831171531 | 92 | 212 | 1.0 | 5.0 | 0.00 | 0.00 | 0.00 | 56 | 1017.6 |
| 20260831170043 | 91 | 134 | 2.0 | 7.0 | 0.00 | 0.00 | 0.00 | 59 | 1017.7 |
| 20260831164535 | 91 | 248 | 1.0 | 6.0 | 0.00 | 0.00 | 0.00 | 60 | 1017.9 |
| 20260831163045 | 90 | 272 | 0.0 | 6.0 | 0.00 | 0.00 | 0.00 | 61 | 1017.8 |
| 20260831161534 | 90 | 266 | 1.0 | 6.0 | 0.00 | 0.00 | 0.00 | 60 | 1017.7 |
| 20260831160051 | 90 | 255 | 1.0 | 5.0 | 0.00 | 0.00 | 0.00 | 63 | 1017.8 |
| 20260831154559 | 90 | 206 | 1.0 | 5.0 | 0.00 | 0.00 | 0.00 | 64 | 1017.7 |
| 20260831153037 | 89 | 240 | 1.0 | 3.0 | 0.00 | 0.00 | 0.00 | 66 | 1017.6 |
| 20260831151537 | 88 | 75 | 1.0 | 5.0 | 0.00 | 0.00 | 0.00 | 67 | 1017.5 |
| 20260831150034 | 88 | 191 | 1.0 | 5.0 | 0.00 | 0.00 | 0.00 | 70 | 1017.5 |
| 20260831144533 | 86 | 107 | 1.0 | 4.0 | 0.00 | 0.00 | 0.00 | 75 | 1017.3 |
| 20260831143034 | 84 | 0 | 0.0 | 1.0 | 0.00 | 0.00 | 0.00 | 79 | 1017.2 |
| 20260831141537 | 81 | 0 | 0.0 | 4.0 | 0.00 | 0.00 | 0.00 | 83 | 1017.2 |
| 20260831140040 | 81 | 259 | 0.0 | 4.0 | 0.00 | 0.00 | 0.00 | 85 | 1016.9 |
| 20260831134534 | 80 | 262 | 0.0 | 4.0 | 0.00 | 0.00 | 0.00 | 86 | 1016.8 |
| 20260831133039 | 80 | 0 | 0.0 | 3.0 | 0.00 | 0.00 | 0.00 | 86 | 1016.5 |
| 20260831131536 | 80 | 0 | 0.0 | 2.0 | 0.00 | 0.00 | 0.00 | 88 | 1016.6 |
| 20260831130037 | 79 | 0 | 0.0 | 1.0 | 0.00 | 0.00 | 0.00 | 89 | 1016.5 |
| 20260831124535 | 78 | 214 | 0.0 | 1.0 | 0.00 | 0.00 | 0.00 | 89 | 1016.3 |
| 20260831123037 | 78 | 0 | 0.0 | 2.0 | 0.00 | 0.00 | 0.00 | 90 | 1016.2 |
| 20260831121535 | 78 | 0 | 0.0 | 0.0 | 0.00 | 0.00 | 0.00 | 89 | 1016.1 |
| 20260831120032 | 78 | 0 | 0.0 | 2.0 | 0.00 | 0.00 | 0.00 | 89 | 1016.1 |
| 20260831114546 | 79 | 0 | 0.0 | 5.0 | 0.00 | 0.00 | 0.00 | 89 | 1016.1 |
| 20260831113033 | 79 | 246 | 1.0 | 6.0 | 0.00 | 0.00 | 0.00 | 88 | 1016.2 |
| 20260831111537 | 79 | 0 | 0.0 | 4.0 | 0.00 | 0.00 | 0.00 | 88 | 1016.0 |
| 20260831110035 | 79 | 208 | 1.0 | 4.0 | 0.00 | 0.00 | 0.00 | 88 | 1016.0 |
| 20260831104538 | 79 | 229 | 0.0 | 4.0 | 0.00 | 0.00 | 0.00 | 88 | 1015.9 |
| 20260831103039 | 79 | 246 | 0.0 | 3.0 | 0.00 | 0.00 | 0.00 | 87 | 1015.9 |
| 20260831101543 | 79 | 0 | 1.0 | 6.0 | 0.00 | 0.00 | 0.00 | 87 | 1015.9 |
| 20260831100034 | 80 | 0 | 0.0 | 3.0 | 0.00 | 0.00 | 0.00 | 86 | 1016.0 |
| 20260831094538 | 80 | 257 | 1.0 | 5.0 | 0.00 | 0.00 | 0.00 | 86 | 1016.0 |
| 20260831093034 | 80 | 267 | 2.0 | 6.0 | 0.00 | 0.00 | 0.00 | 86 | 1015.9 |
| 20260831091544 | 80 | 224 | 1.0 | 5.0 | 0.00 | 0.00 | 0.00 | 86 | 1015.8 |
| 20260831090034 | 80 | 213 | 2.0 | 8.0 | 0.00 | 0.00 | 0.00 | 85 | 1015.8 |
| 20260831084534 | 80 | 247 | 2.0 | 7.0 | 0.00 | 0.00 | 0.00 | 85 | 1015.9 |
| 20260831083034 | 80 | 231 | 1.0 | 6.0 | 0.00 | 0.00 | 0.00 | 85 | 1015.9 |
| 20260831081533 | 80 | 246 | 1.0 | 5.0 | 0.00 | 0.00 | 0.00 | 84 | 1016.0 |
| 20260831080034 | 80 | 263 | 3.0 | 7.0 | 0.00 | 0.00 | 0.00 | 83 | 1016.0 |
| 20260831074534 | 81 | 189 | 2.0 | 11.0 | 0.00 | 0.00 | 0.00 | 83 | 1016.1 |
| 20260831073035 | 81 | 263 | 2.0 | 7.0 | 0.00 | 0.00 | 0.00 | 81 | 1016.0 |
| 20260831071540 | 81 | 242 | 2.0 | 5.0 | 0.00 | 0.00 | 0.00 | 79 | 1016.0 |
| 20260831070038 | 82 | 225 | 2.0 | 4.0 | 0.00 | 0.00 | 0.00 | 77 | 1016.2 |
| 20260831064533 | 82 | 311 | 1.0 | 7.0 | 0.00 | 0.00 | 0.00 | 76 | 1016.2 |
| 20260831063037 | 82 | 269 | 1.0 | 5.0 | 0.00 | 0.00 | 0.00 | 75 | 1016.2 |
| 20260831061535 | 83 | 276 | 1.0 | 5.0 | 0.00 | 0.00 | 0.00 | 74 | 1016.0 |
| 20260831060036 | 83 | 254 | 2.0 | 6.0 | 0.00 | 0.00 | 0.00 | 72 | 1015.9 |
| 20260831054532 | 84 | 268 | 0.0 | 4.0 | 0.00 | 0.00 | 0.00 | 70 | 1015.8 |
| 20260831053034 | 84 | 280 | 0.0 | 4.0 | 0.00 | 0.00 | 0.00 | 69 | 1015.7 |
| 20260831051542 | 85 | 300 | 1.0 | 4.0 | 0.00 | 0.00 | 0.00 | 68 | 1015.6 |
| 20260831050036 | 85 | 257 | 1.0 | 6.0 | 0.00 | 0.00 | 0.00 | 67 | 1015.7 |
| 20260831044535 | 86 | 0 | 1.0 | 7.0 | 0.00 | 0.00 | 0.00 | 66 | 1015.6 |
| 20260831043034 | 86 | 253 | 2.0 | 7.0 | 0.00 | 0.00 | 0.00 | 64 | 1015.5 |
| 20260831041548 | 87 | 254 | 2.0 | 8.0 | 0.00 | 0.00 | 0.00 | 62 | 1015.6 |
| 20260831040040 | 87 | 280 | 2.0 | 5.0 | 0.00 | 0.00 | 0.00 | 61 | 1015.6 |
| 20260831034533 | 88 | 108 | 1.0 | 10.0 | 0.00 | 0.00 | 0.00 | 60 | 1015.3 |
| 20260831033035 | 88 | 355 | 1.0 | 8.0 | 0.00 | 0.00 | 0.00 | 59 | 1015.1 |
| 20260831031535 | 88 | 331 | 2.0 | 7.0 | 0.00 | 0.00 | 0.00 | 58 | 1015.1 |
| 20260831030041 | 89 | 8 | 2.0 | 6.0 | 0.00 | 0.00 | 0.00 | 58 | 1015.0 |
| 20260831024538 | 89 | 116 | 3.0 | 8.0 | 0.00 | 0.00 | 0.00 | 57 | 1014.7 |
| 20260831023035 | 89 | 80 | 2.0 | 9.0 | 0.00 | 0.00 | 0.00 | 57 | 1014.4 |
| 20260831021534 | 90 | 89 | 4.0 | 9.0 | 0.00 | 0.00 | 0.00 | 57 | 1014.1 |
| 20260831020033 | 91 | 43 | 3.0 | 10.0 | 0.00 | 0.00 | 0.00 | 55 | 1013.8 |
| 20260831014536 | 92 | 149 | 2.0 | 13.0 | 0.00 | 0.00 | 0.00 | 52 | 1013.7 |
| 20260831013036 | 94 | 164 | 2.0 | 6.0 | 0.00 | 0.00 | 0.00 | 43 | 1013.1 |
| 20260831011537 | 94 | 131 | 2.0 | 5.0 | 0.00 | 0.00 | 0.00 | 43 | 1012.9 |
| 20260831010035 | 94 | 80 | 3.0 | 6.0 | 0.00 | 0.00 | 0.00 | 42 | 1013.0 |
| 20260831004535 | 94 | 86 | 2.0 | 7.0 | 0.00 | 0.00 | 0.00 | 42 | 1012.9 |
| 20260831003044 | 95 | 93 | 1.0 | 4.0 | 0.00 | 0.00 | 0.00 | 42 | 1012.9 |
| 20260831001533 | 95 | 90 | 2.0 | 6.0 | 0.00 | 0.00 | 0.00 | 42 | 1012.8 |
| 20260831000033 | 95 | 92 | 3.0 | 8.0 | 0.00 | 0.00 | 0.00 | 42 | 1012.8 |
| 20260830234542 | 95 | 102 | 4.0 | 9.0 | 0.00 | 0.00 | 0.00 | 42 | 1013.0 |
| 20260830233035 | 96 | 68 | 4.0 | 10.0 | 0.00 | 0.00 | 0.00 | 42 | 1013.0 |
| 20260830231537 | 97 | 60 | 4.0 | 10.0 | 0.00 | 0.00 | 0.00 | 40 | 1012.9 |
| 20260830230043 | 98 | 286 | 1.0 | 4.0 | 0.00 | 0.00 | 0.00 | 40 | 1012.8 |
| 20260830224534 | 98 | 88 | 1.0 | 6.0 | 0.00 | 0.00 | 0.00 | 39 | 1013.0 |
| 20260830223031 | 99 | 214 | 1.0 | 5.0 | 0.00 | 0.00 | 0.00 | 39 | 1013.0 |
| 20260830221532 | 99 | 247 | 2.0 | 4.0 | 0.00 | 0.00 | 0.00 | 39 | 1013.0 |
| 20260830220034 | 97 | 77 | 1.0 | 4.0 | 0.00 | 0.00 | 0.00 | 40 | 1013.2 |
| 20260830214532 | 98 | 45 | 2.0 | 6.0 | 0.00 | 0.00 | 0.00 | 41 | 1013.4 |
| 20260830213034 | 97 | 266 | 1.0 | 6.0 | 0.00 | 0.00 | 0.00 | 41 | 1013.7 |
| 20260830211531 | 98 | 75 | 3.0 | 8.0 | 0.00 | 0.00 | 0.00 | 40 | 1013.8 |
| 20260830210039 | 97 | 11 | 1.0 | 9.0 | 0.00 | 0.00 | 0.00 | 42 | 1014.0 |
| 20260830204534 | 97 | 70 | 2.0 | 6.0 | 0.00 | 0.00 | 0.00 | 43 | 1014.1 |
| 20260830203038 | 97 | 266 | 2.0 | 9.0 | 0.00 | 0.00 | 0.00 | 44 | 1014.4 |
| 20260830201538 | 97 | 294 | 3.0 | 10.0 | 0.00 | 0.00 | 0.00 | 45 | 1014.7 |
| 20260830200034 | 97 | 266 | 2.0 | 6.0 | 0.00 | 0.00 | 0.00 | 45 | 1015.0 |
| 20260830194535 | 97 | 304 | 3.0 | 7.0 | 0.00 | 0.00 | 0.00 | 44 | 1014.9 |